1511820000.99,63442,8.44,72938.0,-16.83,-49.19,-48.97,0,*6C
1511820002.24,63443,8.44,72942.3,-16.83,-49.05,-48.77,0,*6E
1511820003.46,63444,8.44,72940.5,-16.85,-49.05,-48.97,0,*61
1511820004.69,63445,8.44,72940.8,-16.85,-49.11,-48.97,0,*65
1511820005.93,63446,8.44,72940.3,-16.85,-49.11,-48.97,0,*66
1511820007.14,63447,8.44,72942.3,-16.85,-49.25,-49.05,0,*6A
1511820008.39,63448,8.44,72940.8,-16.85,-48.77,-48.63,0,*62
1511820009.6,63449,8.44,72936.3,-16.85,-48.55,-48.41,0,*63
1511820010.84,63450,8.44,72942.3,-16.85,-48.97,-48.77,0,*60
1511820012.08,63451,8.44,72942.3,-16.85,-49.11,-48.83,0,*65
1511820013.35,63452,8.44,72940.5,-16.85,-48.77,-48.77,0,*6C
1511820014.56,63453,8.44,72938.3,-16.85,-48.97,-48.83,0,*68
1511820015.81,63454,8.44,72942.3,-16.85,-48.77,-48.63,0,*6F
1511820017.08,63455,8.44,72942.0,-16.85,-48.77,-48.77,0,*6B
1511820018.32,63456,8.44,72940.0,-16.85,-48.77,-48.63,0,*6D
1511820019.56,63457,8.44,72940.0,-16.85,-48.83,-48.77,0,*62
1511820020.79,63458,8.44,72942.0,-16.85,-48.83,-48.77,0,*6D
1511820022.04,63459,8.44,72940.3,-16.85,-48.77,-48.63,0,*62
1511820023.28,63460,8.44,72938.3,-16.85,-48.77,-48.63,0,*68
1511820024.5,63461,8.44,72940.0,-16.85,-48.63,-48.63,0,*6C
1511820025.74,63462,8.44,72942.0,-16.85,-49.11,-48.83,0,*65
1511820026.96,63463,8.44,72936.8,-16.85,-48.83,-48.63,0,*60
1511820028.17,63464,8.44,72938.5,-16.85,-48.55,-48.41,0,*6C
1511820029.39,63465,8.44,72940.8,-16.85,-48.41,-48.21,0,*6E
1511820030.62,63466,8.44,72942.8,-16.85,-48.35,-48.21,0,*6E
1511820031.84,63467,8.44,72942.8,-16.85,-48.55,-48.55,0,*6A
1511820033.06,63468,8.44,72940.0,-16.85,-48.63,-48.63,0,*65
1511820034.28,63469,8.44,72936.5,-16.85,-48.83,-48.63,0,*6A
1511820035.51,63470,8.44,72942.5,-16.85,-48.83,-48.77,0,*67
1511820036.75,63471,8.44,72938.5,-16.85,-48.83,-48.77,0,*66
1511820037.97,63472,8.44,72938.5,-16.85,-49.05,-48.83,0,*61
1511820039.21,63473,8.44,72940.8,-16.85,-49.11,-48.97,0,*60
1511820040.42,63474,8.44,72940.8,-16.85,-49.05,-48.97,0,*62
1511820041.63,63475,8.44,72940.3,-16.85,-49.05,-49.05,0,*69
1511820042.9,63476,8.44,72940.8,-16.87,-49.11,-48.83,0,*62
1511820044.11,63477,8.44,72940.5,-16.85,-48.83,-48.83,0,*6B
1511820045.35,63478,8.44,72938.5,-16.87,-48.41,-48.41,0,*66
1511820046.63,63479,8.44,72940.3,-16.87,-48.21,-48.13,0,*66
1511820047.85,63480,8.44,72938.8,-16.85,-48.55,-48.55,0,*63
1511820049.06,63481,8.44,72938.8,-16.85,-48.97,-48.83,0,*67
1511820050.3,63482,8.44,72942.0,-16.87,-48.97,-48.83,0,*66
1511820051.54,63483,8.44,72936.5,-16.87,-49.05,-48.83,0,*6D
1511820052.75,63484,8.44,72938.5,-16.85,-48.97,-48.83,0,*62
1511820053.99,63485,8.44,72938.8,-16.87,-48.97,-48.83,0,*61
1511820055.21,63486,8.44,72940.8,-16.85,-48.63,-48.55,0,*60
1511820056.45,63487,8.44,72936.5,-16.85,-48.35,-47.99,0,*6D
1511820057.66,63488,8.44,72942.3,-16.85,-48.63,-48.63,0,*6B
1511820058.88,63489,8.44,72940.0,-16.85,-48.55,-48.55,0,*6A
1511820060.14,63490,8.44,72936.8,-16.85,-48.35,-48.35,0,*62
1511820061.36,63491,8.44,72936.8,-16.85,-48.55,-48.41,0,*66
1511820062.63,63492,8.44,72938.3,-16.87,-48.63,-48.77,0,*67
1511820063.87,63493,8.44,72940.8,-16.85,-48.21,-48.13,0,*60
1511820065.12,63494,8.44,72940.0,-16.83,-48.49,-48.35,0,*6B
1511820066.33,63495,8.44,72940.8,-16.83,-48.49,-48.49,0,*61
1511820067.58,63496,8.44,72942.0,-16.83,-48.69,-48.49,0,*60
1511820068.82,63497,8.44,72936.5,-16.83,-48.35,-48.49,0,*68
1511820070.06,63498,8.44,72940.0,-16.83,-48.35,-48.49,0,*67
1511820071.32,63499,8.44,72938.8,-16.83,-48.69,-48.55,0,*62
1511820072.59,63500,8.44,72938.3,-16.81,-48.13,-48.07,0,*6B
1511820073.82,63501,8.44,72940.3,-16.83,-48.07,-47.85,0,*68
1511820075.1,63502,8.44,72938.5,-16.81,-48.13,-48.07,0,*69
1511820076.39,63503,8.44,72938.5,-16.81,-48.35,-48.27,0,*6E
1511820077.65,63504,8.44,72938.5,-16.81,-48.35,-48.49,0,*61
1511820078.93,63505,8.44,72940.8,-16.83,-48.13,-48.13,0,*69
1511820080.19,63506,8.44,72938.3,-16.81,-47.65,-47.37,0,*6F
1511820081.44,63507,8.44,72938.3,-16.81,-48.07,-47.85,0,*6C
1511820082.69,63508,8.44,72940.5,-16.81,-48.49,-48.55,0,*6B
1511820083.98,63509,8.44,72936.8,-16.81,-48.91,-48.77,0,*6F
1511820085.28,63510,8.44,72940.0,-16.81,-48.77,-48.69,0,*60
1511820086.56,63511,8.44,72940.8,-16.81,-48.69,-48.55,0,*61
1511820087.82,63512,8.44,72940.5,-16.83,-48.69,-48.55,0,*60
1511820089.08,63513,8.44,72938.3,-16.81,-48.97,-48.91,0,*6A
1511820090.32,63514,8.44,72940.3,-16.81,-48.55,-48.49,0,*66
1511820091.56,63515,8.44,72938.5,-16.81,-48.55,-48.49,0,*67
1511820092.83,63516,8.44,72940.0,-16.81,-48.49,-48.27,0,*61
1511820094.12,63517,8.44,72938.5,-16.81,-48.91,-48.91,0,*68
1511820095.39,63518,8.44,72936.8,-16.81,-49.05,-48.77,0,*63
1511820096.69,63519,8.44,72938.8,-16.81,-48.77,-48.69,0,*69
1511820097.98,63520,8.44,72936.5,-16.81,-48.13,-47.93,0,*6B
1511820099.27,63521,8.44,72936.5,-16.81,-48.27,-48.27,0,*6D
1511820100.54,63522,8.44,72938.8,-16.81,-48.49,-48.35,0,*65
1511820101.84,63523,8.44,72936.5,-16.81,-48.77,-48.77,0,*6F
1511820103.1,63524,8.44,72936.5,-16.81,-48.97,-48.91,0,*6E
1511820104.37,63525,8.44,72940.5,-16.81,-49.05,-49.19,0,*64
1511820105.6,63526,8.44,72940.0,-16.83,-48.55,-48.55,0,*68
1511820106.81,63527,8.44,72938.0,-16.83,-48.49,-48.49,0,*69
1511820108.08,63528,8.44,72938.8,-16.83,-48.35,-48.35,0,*66
1511820109.36,63529,8.44,72940.3,-16.81,-48.69,-48.55,0,*6A
1511820110.63,63530,8.44,72938.0,-16.83,-48.35,-48.35,0,*6F
1511820111.91,63531,8.44,72940.5,-16.81,-48.35,-48.35,0,*6C
1511820113.19,63532,8.44,72940.0,-16.81,-48.13,-48.07,0,*6A
1511820114.48,63533,8.44,72942.5,-16.81,-47.71,-47.71,0,*6E
1511820115.77,63534,8.44,72938.8,-16.77,-47.79,-47.79,0,*60
1511820116.99,63535,8.44,72938.0,-16.79,-48.41,-48.41,0,*6F
1511820118.23,63536,8.44,72942.5,-16.79,-48.69,-48.49,0,*6E
1511820119.48,63537,8.44,72936.0,-16.79,-48.69,-48.49,0,*6F
1511820120.72,63538,8.44,72938.3,-16.77,-47.99,-47.99,0,*6C
1511820121.93,63539,8.44,72940.0,-16.79,-48.49,-48.49,0,*63
1511820123.17,63540,8.44,72942.0,-16.77,-48.49,-48.41,0,*6B
1511820124.41,63541,8.44,72938.8,-16.79,-48.49,-48.27,0,*64
1511820125.66,63542,8.44,72942.5,-16.77,-48.07,-48.07,0,*61
1511820126.91,63543,8.44,72936.8,-16.77,-48.07,-47.99,0,*68
1511820128.15,63544,8.44,72936.8,-16.77,-48.41,-48.41,0,*67
1511820129.36,63545,8.44,72940.8,-16.79,-48.41,-48.49,0,*60
1511820130.61,63546,8.44,72938.0,-16.77,-48.07,-47.85,0,*60
1511820131.86,63547,8.44,72940.0,-16.77,-48.21,-48.21,0,*64
1511820133.13,63548,8.44,72938.8,-16.77,-48.27,-48.41,0,*6B
1511820134.43,63549,8.44,72942.8,-16.77,-48.69,-48.69,0,*6A
1511820135.69,63550,8.44,72944.0,-16.77,-48.83,-48.69,0,*66
1511820136.99,63551,8.44,72940.5,-16.77,-48.69,-48.69,0,*63
1511820138.27,63552,8.44,72938.0,-16.79,-48.69,-48.69,0,*6E
1511820139.48,63553,8.44,72936.0,-16.79,-48.49,-48.49,0,*6F
1511820140.77,63554,8.44,72940.0,-16.77,-48.27,-48.27,0,*66
1511820142.04,63555,8.44,72940.3,-16.77,-48.41,-48.27,0,*67
1511820143.33,63556,8.44,72942.5,-16.77,-48.27,-48.27,0,*64
1511820144.6,63557,8.44,72940.3,-16.75,-48.13,-48.13,0,*67
1511820145.85,63558,8.44,72936.8,-16.75,-48.21,-48.13,0,*69
1511820147.07,63559,8.44,72942.5,-16.75,-48.21,-48.21,0,*69
1511820148.32,63560,8.44,72938.8,-16.77,-48.07,-48.07,0,*61
1511820149.61,63561,8.44,72938.8,-16.73,-47.93,-47.79,0,*60
1511820150.83,63562,8.44,72936.0,-16.75,-47.57,-47.57,0,*61
1511820152.11,63563,8.44,72938.5,-16.73,-47.93,-47.93,0,*66
1511820153.36,63564,8.44,72944.8,-16.75,-48.21,-48.35,0,*62
1511820154.57,63565,8.44,72940.5,-16.75,-47.99,-47.99,0,*66
1511820155.86,63566,8.44,72940.5,-16.73,-47.93,-47.71,0,*6F
1511820157.1,63567,8.44,72938.3,-16.75,-47.93,-47.57,0,*6C
1511820158.39,63568,8.44,72940.0,-16.73,-47.79,-47.71,0,*65
1511820159.67,63569,8.44,72940.5,-16.73,-48.35,-48.35,0,*6C
1511820160.95,63570,8.44,72942.3,-16.73,-48.35,-48.35,0,*64
1511820162.19,63571,8.44,72938.0,-16.73,-48.41,-48.41,0,*65
1511820163.43,63572,8.44,72940.5,-16.73,-48.41,-48.41,0,*66
1511820164.7,63573,8.44,72940.5,-16.73,-48.21,-48.13,0,*66
1511820165.95,63574,8.44,72936.5,-16.73,-48.63,-48.55,0,*65
1511820167.24,63575,8.44,72940.8,-16.69,-48.27,-48.27,0,*6A
1511820168.5,63576,8.44,72942.8,-16.73,-48.41,-48.35,0,*61
1511820169.73,63577,8.44,72942.8,-16.69,-48.55,-48.49,0,*65
1511820171.02,63578,8.44,72938.3,-16.69,-48.35,-48.13,0,*63
1511820172.27,63579,8.44,72940.0,-16.69,-48.07,-48.07,0,*66
1511820173.57,63580,8.44,72938.8,-16.69,-48.13,-48.13,0,*60
1511820174.84,63581,8.44,72938.8,-16.69,-48.69,-48.55,0,*6E
1511820176.09,63582,8.44,72940.0,-16.73,-48.63,-48.55,0,*6C
1511820177.35,63583,8.44,72942.8,-16.69,-47.93,-47.65,0,*6A
1511820178.57,63584,8.44,72936.3,-16.67,-47.85,-47.85,0,*6A
1511820179.81,63585,8.44,72938.5,-16.69,-47.85,-47.85,0,*65
1511820181.06,63586,8.44,72942.3,-16.67,-47.93,-48.07,0,*6A
1511820182.32,63587,8.44,72938.3,-16.67,-48.35,-48.35,0,*69
1511820183.6,63588,8.44,72936.8,-16.69,-48.69,-48.55,0,*67
1511820184.85,63589,8.44,72940.0,-16.69,-48.35,-48.49,0,*62
1511820186.1,63590,8.44,72942.8,-16.69,-48.55,-48.55,0,*61
1511820187.34,63591,8.44,72938.5,-16.69,-48.55,-48.55,0,*60
1511820188.6,63592,8.44,72940.0,-16.67,-48.69,-48.55,0,*62
1511820189.84,63593,8.44,72938.3,-16.69,-48.55,-48.55,0,*62
1511820191.09,63594,8.44,72940.0,-16.69,-48.07,-47.85,0,*60
1511820192.33,63595,8.44,72940.5,-16.67,-48.07,-47.93,0,*68
1511820193.56,63596,8.44,72938.3,-16.67,-48.35,-48.49,0,*62
1511820194.81,63597,8.44,72938.0,-16.67,-47.93,-48.07,0,*6A
1511820196.08,63598,8.44,72938.8,-16.67,-48.13,-48.13,0,*67
1511820197.34,63599,8.44,72936.8,-16.67,-47.93,-47.71,0,*6A
1511820198.59,63600,8.44,72938.3,-16.67,-48.07,-48.13,0,*60
1511820199.86,63601,8.44,72938.5,-16.67,-48.27,-48.13,0,*63
1511820201.14,63602,8.44,72940.5,-16.69,-48.35,-48.35,0,*69
1511820202.38,63603,8.44,72940.8,-16.67,-48.49,-48.35,0,*6D
1511820203.65,63604,8.44,72938.8,-16.67,-48.13,-48.27,0,*66
1511820204.9,63605,8.44,72938.8,-16.67,-48.07,-48.13,0,*65
1511820206.16,63606,8.44,72940.0,-16.67,-48.69,-48.55,0,*6C
1511820207.38,63607,8.44,72938.8,-16.67,-48.49,-48.55,0,*6F
1511820208.61,63608,8.44,72936.5,-16.67,-48.35,-48.49,0,*66
1511820209.89,63609,8.44,72940.3,-16.69,-48.35,-48.35,0,*62
1511820211.16,63610,8.44,72940.0,-16.67,-48.77,-48.69,0,*6B
1511820212.37,63611,8.44,72938.3,-16.67,-48.55,-48.49,0,*68
1511820213.62,63612,8.44,72936.5,-16.67,-48.07,-47.93,0,*64
1511820214.83,63613,8.44,72938.0,-16.67,-48.49,-48.49,0,*67
1511820216.07,63614,8.44,72938.0,-16.65,-48.63,-48.63,0,*62
1511820217.3,63615,8.44,72940.8,-16.65,-48.63,-48.49,0,*6B
1511820218.55,63616,8.44,72938.0,-16.67,-48.77,-48.55,0,*62
1511820219.82,63617,8.44,72940.5,-16.67,-48.13,-48.13,0,*63
1511820221.04,63618,8.44,72938.8,-16.67,-47.85,-47.51,0,*65
1511820222.31,63619,8.44,72934.3,-16.65,-47.85,-47.79,0,*6C
1511820223.55,63620,8.44,72938.0,-16.65,-47.99,-48.07,0,*6D
1511820224.81,63621,8.44,72938.8,-16.65,-48.41,-48.27,0,*64
1511820226.05,63622,8.44,72936.3,-16.65,-48.63,-48.49,0,*6F
1511820227.28,63623,8.44,72936.5,-16.65,-48.49,-48.41,0,*6E
1511820228.5,63624,8.44,72938.3,-16.63,-48.07,-48.07,0,*67
1511820229.74,63625,8.44,72938.8,-16.65,-48.63,-48.41,0,*60
1511820231.0,63626,8.44,72936.8,-16.65,-48.63,-48.69,0,*69
1511820232.29,63627,8.44,72942.0,-16.65,-48.77,-48.69,0,*6D
1511820233.58,63628,8.44,72940.5,-16.65,-48.77,-48.69,0,*62
1511820234.82,63629,8.44,72938.0,-16.65,-48.41,-48.41,0,*6C
1511820236.06,63630,8.44,72938.3,-16.65,-48.63,-48.41,0,*64
1511820237.29,63631,8.44,72936.5,-16.65,-47.99,-47.99,0,*65
1511820238.53,63632,8.44,72940.5,-16.65,-47.85,-47.85,0,*66
1511820239.75,63633,8.44,72938.0,-16.63,-47.99,-47.85,0,*6C
1511820240.99,63634,8.44,72938.5,-16.65,-47.99,-48.07,0,*68
1511820242.23,63635,8.44,72940.3,-16.65,-47.99,-47.85,0,*6C
1511820243.46,63636,8.44,72938.0,-16.65,-47.65,-47.57,0,*63
1511820244.67,63637,8.44,72938.0,-16.63,-47.57,-47.57,0,*65
1511820245.89,63638,8.44,72938.3,-16.63,-48.07,-48.07,0,*6A
1511820247.13,63639,8.44,72938.3,-16.63,-48.27,-48.21,0,*6D
1511820248.37,63640,8.44,72938.8,-16.63,-48.27,-48.21,0,*63
1511820249.61,63641,8.44,72938.5,-16.63,-48.27,-48.21,0,*62
1511820250.84,63642,8.44,72940.0,-16.63,-48.27,-48.41,0,*67
1511820252.06,63643,8.44,72936.8,-16.63,-47.85,-47.85,0,*66
1511820253.32,63644,8.44,72940.0,-16.61,-48.41,-48.35,0,*60
1511820254.56,63645,8.44,72940.5,-16.61,-47.99,-47.99,0,*62
1511820255.85,63646,8.44,72938.5,-16.61,-48.35,-48.35,0,*61
1511820257.08,63647,8.44,72938.8,-16.61,-48.63,-48.41,0,*60
1511820258.32,63648,8.44,72938.3,-16.61,-48.41,-48.41,0,*6F
1511820259.57,63649,8.44,72936.3,-16.63,-48.69,-48.63,0,*66
1511820260.85,63650,8.44,72936.8,-16.61,-48.35,-48.35,0,*66
1511820262.09,63651,8.44,72936.5,-16.61,-48.55,-48.41,0,*62
1511820263.3,63652,8.44,72936.0,-16.59,-48.41,-48.41,0,*6F
1511820264.55,63653,8.44,72936.5,-16.61,-48.55,-48.55,0,*65
1511820265.79,63654,8.44,72936.8,-16.61,-48.63,-48.41,0,*62
1511820267.03,63655,8.44,72936.0,-16.61,-48.63,-48.41,0,*63
1511820268.24,63656,8.44,72936.3,-16.63,-47.85,-47.99,0,*6F
1511820269.46,63657,8.44,72936.5,-16.63,-48.49,-48.63,0,*6B
1511820270.68,63658,8.44,72936.0,-16.63,-48.21,-48.07,0,*68
1511820271.96,63659,8.44,72936.5,-16.61,-47.93,-47.93,0,*6F
1511820273.18,63660,8.44,72938.5,-16.63,-47.99,-48.07,0,*6F
1511820274.42,63661,8.44,72938.0,-16.61,-47.99,-47.99,0,*64
1511820275.69,63662,8.44,72936.0,-16.61,-48.13,-48.21,0,*66
1511820276.96,63663,8.44,72936.3,-16.61,-47.99,-47.79,0,*68
1511820278.25,63664,8.44,72936.0,-16.61,-48.13,-48.35,0,*65
1511820279.49,63665,8.44,72934.8,-16.61,-48.41,-48.21,0,*66
1511820280.73,63666,8.44,72934.5,-16.61,-48.41,-48.55,0,*66
1511820282.01,63667,8.44,72934.8,-16.61,-48.69,-48.63,0,*68
1511820283.25,63668,8.44,72936.5,-16.59,-48.69,-48.63,0,*6C
1511820284.49,63669,8.44,72938.0,-16.61,-48.41,-48.41,0,*6C
1511820285.71,63670,8.44,72938.5,-16.59,-48.41,-48.41,0,*6F
1511820286.94,63671,8.44,72938.5,-16.61,-48.63,-48.41,0,*65
1511820288.18,63672,8.44,72938.3,-16.61,-47.57,-47.57,0,*66
1511820289.41,63673,8.44,72938.5,-16.59,-47.71,-47.57,0,*68
1511820290.68,63674,8.44,72934.5,-16.61,-48.13,-48.21,0,*61
1511820291.95,63675,8.44,72936.8,-16.59,-48.13,-48.13,0,*6A
1511820293.22,63676,8.44,72940.5,-16.59,-47.79,-47.93,0,*6D
1511820294.46,63677,8.44,72936.3,-16.59,-47.99,-48.13,0,*65
1511820295.7,63678,8.44,72936.5,-16.59,-48.35,-48.21,0,*62
1511820296.96,63679,8.44,72936.0,-16.61,-48.35,-48.21,0,*68
1511820298.17,63680,8.44,72932.5,-16.59,-47.99,-47.99,0,*60
1511820299.42,63681,8.44,72938.3,-16.57,-48.07,-48.07,0,*6F
1511820300.69,63682,8.44,72938.5,-16.57,-48.63,-48.77,0,*69
1511820301.94,63683,8.44,72932.3,-16.55,-48.35,-48.35,0,*6F
1511820303.23,63684,8.44,72932.5,-16.57,-48.27,-48.27,0,*6A
1511820304.51,63685,8.44,72938.3,-16.57,-48.35,-48.35,0,*6B
1511820305.73,63686,8.44,72934.8,-16.59,-48.21,-47.99,0,*6A
1511820307.0,63687,8.44,72932.5,-16.59,-48.13,-48.13,0,*67
1511820308.25,63688,8.44,72936.8,-16.57,-47.31,-47.31,0,*66
1511820309.48,63689,8.44,72940.5,-16.57,-47.51,-47.65,0,*60
1511820310.74,63690,8.44,72936.8,-16.55,-48.27,-48.27,0,*6D
1511820311.98,63691,8.44,72938.5,-16.55,-48.49,-48.35,0,*67
1511820313.22,63692,8.44,72934.3,-16.57,-48.55,-48.49,0,*60
1511820314.43,63693,8.44,72936.8,-16.55,-48.63,-48.55,0,*6B
1511820315.66,63694,8.44,72932.3,-16.55,-48.35,-48.49,0,*62
1511820316.93,63695,8.44,72936.3,-16.55,-48.13,-48.13,0,*68
1511820318.17,63696,8.44,72938.3,-16.55,-48.49,-48.35,0,*60
1511820319.4,63697,8.44,72938.8,-16.55,-48.49,-48.35,0,*61
1511820320.64,63698,8.44,72936.0,-16.55,-48.49,-48.35,0,*6E
1511820321.88,63699,8.44,72938.5,-16.55,-48.49,-48.35,0,*6F
1511820323.17,63700,8.44,72932.8,-16.57,-48.13,-48.13,0,*67
1511820324.46,63701,8.44,72932.3,-16.57,-47.93,-47.93,0,*66
1511820325.69,63702,8.44,72934.5,-16.57,-48.55,-48.49,0,*68
1511820326.99,63703,8.44,72938.0,-16.57,-48.77,-48.77,0,*64
1511820328.27,63704,8.44,72936.0,-16.57,-48.35,-48.35,0,*63
1511820329.54,63705,8.44,72936.8,-16.55,-48.13,-48.13,0,*60
1511820330.8,63706,8.44,72936.8,-16.55,-47.93,-47.93,0,*63
1511820332.06,63707,8.44,72934.8,-16.55,-48.27,-48.27,0,*62
1511820333.34,63708,8.44,72934.5,-16.57,-48.27,-48.27,0,*6F
1511820334.57,63709,8.44,72936.8,-16.55,-48.35,-48.49,0,*67
1511820335.81,63710,8.44,72934.5,-16.55,-48.63,-48.77,0,*61
1511820337.07,63711,8.44,72936.0,-16.55,-48.35,-48.35,0,*65
1511820338.32,63712,8.44,72938.3,-16.57,-48.07,-48.07,0,*64
1511820339.52,63713,8.44,72934.0,-16.55,-48.49,-48.49,0,*67
1511820340.79,63714,8.44,72938.5,-16.55,-48.13,-48.27,0,*67
1511820342.07,63715,8.44,72932.5,-16.57,-48.35,-48.35,0,*63
1511820343.34,63716,8.44,72934.5,-16.57,-48.63,-48.77,0,*65
1511820344.61,63717,8.44,72936.8,-16.55,-48.13,-48.27,0,*64
1511820345.89,63718,8.44,72938.5,-16.57,-48.35,-48.27,0,*6D
1511820347.18,63719,8.44,72932.8,-16.57,-48.13,-48.27,0,*68
1511820348.47,63720,8.44,72932.8,-16.57,-48.35,-48.27,0,*66
1511820349.73,63721,8.44,72938.8,-16.55,-48.35,-48.35,0,*66
1511820351.0,63722,8.44,72936.3,-16.57,-48.07,-48.27,0,*65
1511820352.24,63723,8.44,72934.3,-16.55,-48.13,-48.07,0,*61
1511820353.52,63724,8.44,72932.5,-16.51,-47.79,-47.85,0,*64
1511820354.8,63725,8.44,72936.5,-16.53,-48.13,-47.93,0,*63
1511820356.08,63726,8.44,72934.3,-16.53,-47.71,-47.71,0,*67
1511820357.36,63727,8.44,72934.3,-16.53,-47.71,-47.93,0,*6A
1511820358.64,63728,8.44,72932.5,-16.53,-48.27,-48.27,0,*69
1511820359.93,63729,8.44,72936.5,-16.53,-48.27,-48.27,0,*68
1511820361.22,63730,8.44,72934.3,-16.51,-48.27,-48.27,0,*62
1511820362.48,63731,8.44,72934.5,-16.53,-47.85,-47.71,0,*6A
1511820363.72,63732,8.44,72938.8,-16.51,-47.57,-47.65,0,*61
1511820364.96,63733,8.44,72934.5,-16.53,-48.49,-48.49,0,*63
1511820366.24,63734,8.44,72934.0,-16.53,-48.27,-48.35,0,*67
1511820367.49,63735,8.44,72934.0,-16.51,-48.07,-48.21,0,*63
1511820368.78,63736,8.44,72934.0,-16.53,-48.27,-48.35,0,*65
1511820370.02,63737,8.44,72936.8,-16.51,-48.49,-48.49,0,*65
1511820371.31,63738,8.44,72932.0,-16.51,-48.27,-48.27,0,*6A
1511820372.56,63739,8.44,72934.5,-16.49,-48.49,-48.27,0,*6A
1511820373.82,63740,8.44,72934.0,-16.53,-48.07,-48.13,0,*62
1511820375.08,63741,8.44,72932.8,-16.51,-47.85,-47.85,0,*64
1511820376.32,63742,8.44,72936.8,-16.51,-47.99,-47.99,0,*67
1511820377.58,63743,8.44,72936.5,-16.51,-48.07,-48.07,0,*66
1511820378.81,63744,8.44,72936.0,-16.53,-47.65,-47.65,0,*63
1511820380.07,63745,8.44,72934.3,-16.51,-47.65,-47.93,0,*69
1511820381.32,63746,8.44,72934.8,-16.51,-47.85,-47.85,0,*63
1511820382.62,63747,8.44,72930.5,-16.51,-47.79,-47.79,0,*62
1511820383.92,63748,8.44,72932.5,-16.51,-47.79,-47.79,0,*6D
1511820385.14,63749,8.44,72932.0,-16.49,-47.99,-47.99,0,*65
1511820386.37,63750,8.44,72932.5,-16.49,-48.21,-48.21,0,*6D
1511820387.61,63751,8.44,72934.5,-16.45,-48.21,-48.13,0,*61
1511820388.83,63752,8.44,72934.3,-16.49,-47.85,-47.99,0,*62
1511820390.1,63753,8.44,72934.3,-16.45,-47.79,-47.93,0,*66
1511820391.36,63754,8.44,72934.5,-16.45,-48.35,-48.35,0,*65
1511820392.6,63755,8.44,72932.0,-16.45,-48.21,-48.27,0,*62
1511820393.84,63756,8.44,72934.5,-16.49,-48.35,-48.41,0,*68
1511820395.06,63757,8.44,72934.5,-16.49,-48.49,-48.41,0,*62
1511820396.3,63758,8.44,72932.8,-16.45,-48.41,-48.35,0,*6A
1511820397.51,63759,8.44,72934.8,-16.45,-47.99,-47.99,0,*68
1511820398.74,63760,8.44,72934.5,-16.49,-47.99,-47.85,0,*63
1511820399.98,63761,8.44,72932.8,-16.49,-48.41,-48.27,0,*6F
1511820401.2,63762,8.44,72932.8,-16.49,-48.07,-47.99,0,*64
1511820402.42,63763,8.44,72938.3,-16.45,-47.57,-47.57,0,*61
1511820403.63,63764,8.44,72934.3,-16.45,-47.57,-47.57,0,*66
1511820404.9,63765,8.44,72934.8,-16.45,-48.13,-48.13,0,*67
1511820406.17,63766,8.44,72934.8,-16.45,-48.13,-48.13,0,*64
1511820407.42,63767,8.44,72932.0,-16.43,-48.49,-48.63,0,*6B
1511820408.63,63768,8.44,72932.0,-16.45,-48.49,-48.41,0,*62
1511820409.9,63769,8.44,72932.0,-16.45,-47.79,-47.79,0,*6B
1511820411.2,63770,8.44,72934.5,-16.43,-47.79,-47.93,0,*61
1511820412.46,63771,8.44,72932.3,-16.43,-48.35,-48.21,0,*61
1511820413.73,63772,8.44,72932.8,-16.43,-47.99,-48.13,0,*6A
1511820415.03,63773,8.44,72936.0,-16.43,-47.79,-47.79,0,*66
1511820416.31,63774,8.44,72932.3,-16.43,-47.71,-47.71,0,*61
1511820417.54,63775,8.44,72936.8,-16.41,-48.07,-48.07,0,*62
1511820418.81,63776,8.44,72932.8,-16.43,-48.35,-48.41,0,*60
1511820420.1,63777,8.44,72932.5,-16.43,-47.93,-47.93,0,*62
1511820421.33,63778,8.44,72934.0,-16.41,-47.65,-47.71,0,*6A
1511820422.63,63779,8.44,72932.0,-16.43,-47.79,-47.93,0,*68
1511820423.92,63780,8.44,72936.0,-16.43,-48.13,-48.13,0,*6A
1511820425.19,63781,8.44,72934.0,-16.41,-47.93,-47.93,0,*69
1511820426.42,63782,8.44,72932.8,-16.41,-48.07,-48.07,0,*6A
1511820427.69,63783,8.44,72932.5,-16.41,-48.27,-48.13,0,*6C
1511820428.9,63784,8.44,72936.0,-16.41,-47.51,-47.65,0,*6B
1511820430.17,63785,8.44,72930.3,-16.41,-48.27,-48.27,0,*6D
1511820431.41,63786,8.44,72932.5,-16.41,-48.41,-48.35,0,*6D
1511820432.66,63787,8.44,72932.8,-16.43,-48.21,-48.21,0,*6D
1511820433.91,63788,8.44,72934.5,-16.41,-47.93,-48.07,0,*62
1511820435.19,63789,8.44,72932.8,-16.43,-48.13,-48.07,0,*66
1511820436.45,63790,8.44,72932.8,-16.41,-48.35,-48.27,0,*6A
1511820437.72,63791,8.44,72932.5,-16.41,-48.35,-48.27,0,*6B
1511820438.98,63792,8.44,72932.5,-16.43,-48.35,-48.21,0,*6C
1511820440.22,63793,8.44,72934.5,-16.41,-48.35,-48.21,0,*6F
1511820441.49,63794,8.44,72934.0,-16.41,-48.27,-48.27,0,*6D
1511820442.76,63795,8.44,72934.0,-16.41,-47.93,-48.13,0,*6B
1511820444.01,63796,8.44,72932.5,-16.41,-47.93,-48.07,0,*6D
1511820445.28,63797,8.44,72932.8,-16.41,-48.27,-48.27,0,*6E
1511820446.49,63798,8.44,72932.3,-16.41,-47.51,-47.51,0,*61
1511820447.71,63799,8.44,72932.0,-16.41,-47.51,-47.65,0,*67
1511820448.99,63800,8.44,72934.0,-16.39,-47.71,-47.71,0,*60
1511820450.28,63801,8.44,72930.3,-16.39,-47.71,-47.71,0,*61
1511820451.49,63802,8.44,72934.0,-16.37,-47.57,-47.57,0,*6C
1511820452.78,63803,8.44,72932.3,-16.39,-47.71,-47.71,0,*63
1511820454.05,63804,8.44,72930.8,-16.37,-47.79,-47.79,0,*6A
1511820455.33,63805,8.44,72932.5,-16.39,-48.13,-48.07,0,*60
1511820456.6,63806,8.44,72932.5,-16.39,-48.07,-47.93,0,*64
1511820457.83,63807,8.44,72934.3,-16.37,-48.21,-48.07,0,*6D
1511820459.07,63808,8.44,72932.5,-16.37,-48.27,-48.21,0,*60
1511820460.33,63809,8.44,72928.8,-16.37,-48.27,-48.27,0,*67
1511820461.6,63810,8.44,72934.8,-16.39,-48.41,-48.35,0,*62
1511820462.82,63811,8.44,72932.0,-16.37,-47.99,-47.99,0,*6E
1511820464.06,63812,8.44,72932.8,-16.37,-47.79,-47.85,0,*6E
1511820465.33,63813,8.44,72934.5,-16.37,-47.79,-47.79,0,*6C
1511820466.55,63814,8.44,72932.0,-16.37,-48.07,-47.99,0,*63
1511820467.83,63815,8.44,72932.5,-16.39,-48.13,-48.07,0,*61
1511820469.07,63816,8.44,72930.3,-16.37,-47.65,-47.79,0,*64
1511820470.27,63817,8.44,72932.3,-16.37,-47.65,-47.65,0,*68
1511820471.55,63818,8.44,72932.3,-16.37,-47.79,-47.79,0,*67
1511820472.79,63819,8.44,72932.0,-16.35,-47.85,-47.99,0,*69
1511820474.04,63820,8.38,72930.8,-16.35,-48.07,-48.07,0,*6E
1511820475.34,63821,8.44,72932.3,-16.35,-47.45,-47.23,0,*6F
1511820476.58,63822,8.44,72934.0,-16.35,-47.57,-47.57,0,*6C
1511820477.85,63823,8.44,72930.8,-16.33,-47.37,-47.37,0,*6B
1511820479.09,63824,8.44,72934.8,-16.33,-47.51,-47.71,0,*6E
1511820480.33,63825,8.44,72934.5,-16.35,-47.57,-47.57,0,*6B
1511820481.54,63826,8.44,72934.0,-16.33,-47.99,-47.99,0,*6E
1511820482.76,63827,8.44,72932.0,-16.33,-47.99,-47.99,0,*6F
1511820484.02,63828,8.44,72930.8,-16.33,-47.79,-47.93,0,*64
1511820485.26,63829,8.44,72932.8,-16.33,-48.13,-47.99,0,*6C
1511820486.53,63830,8.44,72932.0,-16.33,-47.93,-47.93,0,*69
1511820487.79,63831,8.44,72932.8,-16.33,-47.93,-47.93,0,*68
1511820489.0,63832,8.44,72934.0,-16.33,-48.21,-47.99,0,*67
1511820490.22,63833,8.44,72934.0,-16.33,-47.31,-47.17,0,*6E
1511820491.49,63834,8.38,72928.3,-16.31,-47.99,-48.13,0,*62
1511820492.76,63835,8.44,72934.0,-16.31,-47.93,-47.99,0,*64
1511820494.0,63836,8.44,72932.0,-16.31,-48.21,-48.41,0,*6B
1511820495.22,63837,8.44,72930.8,-16.33,-47.99,-47.99,0,*6E
1511820496.43,63838,8.44,72930.8,-16.33,-47.99,-47.99,0,*61
1511820497.7,63839,8.44,72934.5,-16.33,-48.13,-48.13,0,*60
1511820498.93,63840,8.44,72932.3,-16.33,-48.21,-48.21,0,*6E
1511820500.17,63841,8.44,72932.0,-16.29,-47.93,-48.07,0,*66